Date String (YYYY-MM-DD hh:mm:ss) UTC,Instrument flags,absolute air pressure of the measurement (hPa),sample flow rate (lpm),inlet stack bypass flow (lpm),air temperature of the measurement (°C),ambient temperature measured by the external sensor (°C),aerosol sample conditioner tube jacket temperature (°C),OPC LED temperature (°C),internal box temperature (°C),relative humidity of the measurement (%),span deviation,mass concentration of particles derived from Lorenz-Mie calculation of OPC scattering (μg/m³),mass concentration of particles derived from Lorenz-Mie calculation of OPC scattering (μg/m³),mass concentration of particles derived from Lorenz-Mie calculation of OPC scattering (μg/m³)
DateTimeUTC,F1_M11,P_M11,Q1_M11,Q2_M11,T1_M11,T2_M11,T3_M11,T4_M11,T5_M11,U1_M11,ZSPAN_M11,X0_M11,X2_M11,X1_M11
2023-12-16 06:00:00,SystemResetWarning,0835.6,5.01,000.00,020.2,019.1,000.0,028.7,021.4,9.6,0000.0,0001.98,0001.20,0000.89
2023-12-16 06:01:00,SystemResetWarning,0835.6,4.99,000.00,020.2,019.1,000.0,028.6,021.5,9.6,0000.0,0001.99,0001.20,0000.88
2023-12-16 06:02:00,SystemResetWarning,0835.6,4.99,000.00,020.2,019.1,000.0,028.6,021.4,9.6,0000.0,0002.07,0001.19,0000.88
2023-12-16 06:03:00,SystemResetWarning,0835.6,5.00,000.00,020.2,019.1,000.0,028.6,021.4,9.8,0000.0,0002.06,0001.18,0000.88
2023-12-16 06:04:00,SystemResetWarning,0835.6,5.00,000.00,020.2,019.1,000.0,028.6,021.4,9.6,0000.0,0002.03,0001.18,0000.88
2023-12-16 06:05:00,SystemResetWarning,0835.7,5.00,000.00,020.2,019.1,000.0,028.6,021.4,9.4,0000.0,0002.04,0001.17,0000.88
2023-12-16 06:06:00,SystemResetWarning,0835.7,5.00,000.00,020.1,019.1,000.0,028.6,021.5,9.1,0000.0,0002.24,0001.21,0000.90
2023-12-16 06:07:00,SystemResetWarning,0835.7,5.00,000.00,020.1,019.2,000.0,028.6,021.5,9.2,0000.0,0002.24,0001.25,0000.91
2023-12-16 06:08:00,SystemResetWarning,0835.9,5.00,000.00,020.1,019.2,000.0,028.6,021.5,9.3,0000.0,0002.22,0001.26,0000.93
2023-12-16 06:09:00,SystemResetWarning,0835.6,5.00,000.00,020.1,019.1,000.0,028.6,021.5,9.2,0000.0,0002.22,0001.24,0000.94
2023-12-16 06:10:00,SystemResetWarning,0835.8,5.00,000.00,020.1,019.1,000.0,028.6,021.4,9.4,0000.0,0002.27,0001.25,0000.94
2023-12-16 06:11:00,SystemResetWarning,0835.6,5.00,000.00,020.1,019.1,000.0,028.6,021.4,9.4,0000.0,0002.36,0001.26,0000.93
2023-12-16 06:12:00,SystemResetWarning,0835.6,4.99,000.00,020.1,019.1,000.0,028.6,021.5,9.4,0000.0,0002.25,0001.22,0000.92
2023-12-16 06:13:00,SystemResetWarning,0835.6,5.00,000.00,020.1,019.1,000.0,028.5,021.5,9.5,0000.0,0002.12,0001.24,0000.92
2023-12-16 06:14:00,SystemResetWarning,0835.6,5.00,000.00,020.1,019.1,000.0,028.5,021.4,9.8,0000.0,0002.15,0001.24,0000.91
2023-12-16 06:15:00,SystemResetWarning,0835.6,5.00,000.00,020.1,019.1,000.0,028.5,021.5,9.8,0000.0,0002.18,0001.25,0000.91
2023-12-16 06:16:00,SystemResetWarning,0835.6,5.00,000.00,020.1,019.1,000.0,028.5,021.4,9.9,0000.0,0002.26,0001.26,0000.90
2023-12-16 06:17:00,SystemResetWarning,0835.6,5.00,000.00,020.1,019.1,000.0,028.5,021.4,9.7,0000.0,0002.06,0001.24,0000.89
2023-12-16 06:18:00,SystemResetWarning,0835.5,5.01,000.00,020.1,019.1,000.0,028.5,021.4,9.6,0000.0,0001.95,0001.20,0000.88
2023-12-16 06:19:00,SystemResetWarning,0835.5,5.00,000.00,020.1,019.1,000.0,028.5,021.4,9.6,0000.0,0001.96,0001.19,0000.86
2023-12-16 06:20:00,SystemResetWarning,0835.5,5.00,000.00,020.1,019.1,000.0,028.5,021.4,9.6,0000.0,0001.99,0001.21,0000.86
2023-12-16 06:21:00,SystemResetWarning,0835.5,5.00,000.00,020.1,019.1,000.0,028.5,021.3,9.8,0000.0,0002.00,0001.21,0000.87
2023-12-16 06:22:00,SystemResetWarning,0835.5,5.00,000.00,020.1,019.1,000.0,028.5,021.2,9.9,0000.0,0001.95,0001.21,0000.87
2023-12-16 06:23:00,SystemResetWarning,0835.5,5.00,000.00,020.1,019.1,000.0,028.5,021.2,9.9,0000.0,0001.97,0001.23,0000.88
2023-12-16 06:24:00,SystemResetWarning,0835.5,5.00,000.00,020.1,019.2,000.0,028.5,021.3,9.9,0000.0,0001.98,0001.23,0000.89
2023-12-16 06:25:00,SystemResetWarning,0835.5,5.00,000.00,020.1,019.2,000.0,028.5,021.3,10.0,0000.0,0002.00,0001.24,0000.89
2023-12-16 06:26:00,SystemResetWarning,0835.5,4.99,000.00,020.1,019.2,000.0,028.5,021.3,10.0,0000.0,0002.00,0001.26,0000.90
2023-12-16 06:27:00,SystemResetWarning,0835.5,5.00,000.00,020.1,019.2,000.0,028.4,021.4,10.0,0000.0,0001.97,0001.26,0000.92
2023-12-16 06:28:00,SystemResetWarning,0835.5,5.00,000.00,020.1,019.2,000.0,028.5,021.4,10.1,0000.0,0002.03,0001.30,0000.95
2023-12-16 06:29:00,SystemResetWarning,0835.5,5.01,000.00,020.1,019.2,000.0,028.4,021.4,10.1,0000.0,0002.11,0001.35,0000.97
2023-12-16 06:30:00,SystemResetWarning,0835.7,5.01,000.00,020.1,019.2,000.0,028.4,021.4,10.1,0000.0,0002.16,0001.38,0001.00
2023-12-16 06:31:00,SystemResetWarning,0835.5,5.01,000.00,020.1,019.2,000.0,028.4,021.4,10.1,0000.0,0002.09,0001.36,0001.01
2023-12-16 06:32:00,SystemResetWarning,0835.5,5.00,000.00,020.1,019.2,000.0,028.4,021.4,10.0,0000.0,0002.08,0001.37,0001.03
2023-12-16 06:33:00,SystemResetWarning,0835.5,5.00,000.00,020.1,019.2,000.0,028.4,021.4,10.1,0000.0,0002.16,0001.37,0001.05
2023-12-16 06:34:00,SystemResetWarning,0835.5,4.99,000.00,020.1,019.3,000.0,028.4,021.4,9.9,0000.0,0002.30,0001.38,0001.06
2023-12-16 06:35:00,SystemResetWarning,0835.5,5.00,000.00,020.1,019.3,000.0,028.4,021.5,9.8,0000.0,0002.23,0001.37,0001.07
2023-12-16 06:36:00,SystemResetWarning,0835.5,5.00,000.00,020.1,019.3,000.0,028.4,021.4,9.8,0000.0,0002.12,0001.34,0001.08
2023-12-16 06:37:00,SystemResetWarning,0835.5,5.00,000.00,020.1,019.2,000.0,028.4,021.4,9.9,0000.0,0002.04,0001.31,0001.08
2023-12-16 06:38:00,SystemResetWarning,0835.6,5.00,000.00,020.1,019.2,000.0,028.4,021.4,9.9,0000.0,0002.19,0001.31,0001.06
2023-12-16 06:39:00,SystemResetWarning,0835.6,5.00,000.00,020.1,019.2,000.0,028.4,021.4,10.1,0000.0,0002.19,0001.29,0001.03
2023-12-16 06:40:00,SystemResetWarning,0835.6,5.00,000.00,020.1,019.2,000.0,028.4,021.4,10.0,0000.0,0002.13,0001.25,0001.02
2023-12-16 06:41:00,SystemResetWarning,0835.5,5.00,000.00,020.1,019.2,000.0,028.4,021.5,9.7,0000.0,0002.05,0001.20,0000.99
2023-12-16 06:42:00,SystemResetWarning,0835.5,4.99,000.00,020.1,019.2,000.0,028.4,021.5,9.5,0000.0,0002.05,0001.19,0000.97
2023-12-16 06:43:00,SystemResetWarning,0835.5,5.00,000.00,020.1,019.2,000.0,028.4,021.5,9.5,0000.0,0002.06,0001.18,0000.95
2023-12-16 06:44:00,SystemResetWarning,0835.5,5.00,000.00,020.1,019.2,000.0,028.4,021.5,9.6,0000.0,0001.92,0001.15,0000.93
2023-12-16 06:45:00,SystemResetWarning,0835.4,5.00,000.00,020.1,019.1,000.0,028.4,021.4,9.6,0000.0,0001.73,0001.12,0000.91
2023-12-16 06:46:00,SystemResetWarning,0835.4,5.00,000.00,020.1,019.1,000.0,028.4,021.4,9.6,0000.0,0001.68,0001.09,0000.89
2023-12-16 06:47:00,SystemResetWarning,0835.4,5.00,000.00,020.1,019.1,000.0,028.4,021.4,9.5,0000.0,0001.68,0001.07,0000.87
2023-12-16 06:48:00,SystemResetWarning,0835.3,5.00,000.00,020.1,019.1,000.0,028.4,021.4,9.4,0000.0,0001.63,0001.05,0000.85
2023-12-16 06:49:00,SystemResetWarning,0835.3,5.00,000.00,020.1,019.1,000.0,028.4,021.4,9.4,0000.0,0001.44,0000.99,0000.83
2023-12-16 06:50:00,SystemResetWarning,0835.2,5.00,000.00,020.1,019.1,000.0,028.4,021.4,9.5,0000.0,0001.35,0000.96,0000.82
2023-12-16 06:51:00,SystemResetWarning,0835.2,5.00,000.00,020.0,019.1,000.0,028.4,021.3,9.4,0000.0,0001.25,0000.92,0000.81
2023-12-16 06:52:00,SystemResetWarning,0835.2,5.01,000.00,020.0,019.1,000.0,028.4,021.3,9.4,0000.0,0001.30,0000.93,0000.81
2023-12-16 06:53:00,SystemResetWarning,0835.2,5.00,000.00,020.0,019.1,000.0,028.4,021.4,9.4,0000.0,0001.35,0000.93,0000.80
2023-12-16 06:54:00,SystemResetWarning,0835.3,5.00,000.00,020.0,019.1,000.0,028.4,021.4,9.5,0000.0,0001.66,0000.92,0000.79
2023-12-16 06:55:00,SystemResetWarning,0835.3,5.01,000.00,020.0,019.0,000.0,028.4,021.4,9.5,0000.0,0001.62,0000.90,0000.77
2023-12-16 06:56:00,SystemResetWarning,0835.3,5.00,000.00,020.0,019.0,000.0,028.4,021.3,9.6,0000.0,0001.64,0000.90,0000.76
2023-12-16 06:57:00,SystemResetWarning,0835.4,5.01,000.00,020.0,019.0,000.0,028.4,021.3,9.6,0000.0,0001.68,0000.92,0000.76
2023-12-16 06:58:00,SystemResetWarning,0835.3,4.99,000.00,020.0,019.1,000.0,028.4,021.3,9.5,0000.0,0001.68,0000.92,0000.76
2023-12-16 06:59:00,SystemResetWarning,0835.3,4.99,000.00,020.0,019.1,000.0,028.4,021.3,9.5,0000.0,0001.74,0000.93,0000.76
